Temp_Advection
nan nan nan nan nan nan nan nan nan nan nan nan nan nan nan nan nan nan nan nan nan nan nan nan nan nan nan nan nan nan nan nan nan nan nan nan nan nan nan nan nan nan nan nan nan nan nan nan nan nan nan nan nan nan nan nan nan nan nan nan nan nan nan nan nan nan nan nan nan nan nan nan nan nan
nan 1 0 0 0 0 1 1 1 1 0 0 0 0 0 0 0 0 -0 -0 -0 0 0 0 0 0 0 0 0 0 1 1 0 0 1 1 1 1 0 -0 0 0 0 0 0 0 0 0 0 0 0 -0 -0 0 -0 -0 -0 0 0 0 0 0 0 0 0 0 0 0 0 0 0 0 0 nan
nan 0 0 0 0 0 1 1 1 0 0 0 0 0 -0 -0 0 0 0 -0 -0 0 0 0 0 -0 0 0 0 1 1 1 0 0 1 1 1 0 0 0 0 0 0 0 0 0 0 0 0 0 -0 -0 -0 -0 -0 -0 -0 -0 -0 0 0 0 0 0 0 0 0 0 0 0 0 0 0 nan
nan 0 0 0 0 1 1 0 0 0 0 0 0 0 -0 -0 0 1 0 -0 -0 0 0 0 0 -0 -0 0 0 1 1 1 0 1 1 1 0 0 0 0 0 0 0 0 0 0 0 0 0 0 -0 -0 -0 -0 -0 -0 -0 -0 -0 0 0 0 0 0 0 0 0 0 0 0 0 0 0 nan
nan -0 0 0 1 1 1 0 0 0 0 1 0 0 0 -0 0 0 0 -0 -0 0 0 0 0 -0 -0 -0 0 1 1 1 1 1 1 0 0 0 0 -0 0 0 0 0 0 0 0 0 0 0 0 0 0 0 0 0 -0 -0 0 0 0 0 0 0 0 0 0 0 0 0 0 0 0 nan
nan 0 -0 0 1 1 1 0 0 0 1 1 0 0 0 0 0 1 0 0 0 0 0 0 0 -0 -0 -0 0 1 1 1 1 1 1 0 0 0 0 -0 0 0 0 0 0 -0 0 0 0 0 0 0 0 0 0 0 0 -0 -0 0 0 0 -0 0 0 0 0 0 0 0 -0 0 0 nan
nan 0 -0 0 1 1 1 0 0 0 1 0 0 0 0 0 1 0 0 0 0 0 0 -0 -0 0 -0 -0 0 1 1 1 1 1 0 0 0 0 0 -0 0 0 0 0 0 -0 -0 0 0 0 0 0 0 0 0 0 -0 -0 -0 -0 -0 -0 -0 -0 -0 -0 0 0 0 0 0 0 0 nan
nan 0 -0 0 1 1 1 1 1 1 0 0 0 1 1 1 0 0 -0 0 0 0 0 0 0 0 0 -0 0 1 1 1 1 1 0 0 0 0 0 0 0 0 0 0 0 -0 -0 0 0 0 0 0 0 0 0 -0 -0 -0 -0 -0 0 0 -0 -0 -0 -0 -0 0 0 -0 0 0 0 nan
nan 0 -0 0 1 1 1 1 1 0 0 0 0 0 0 0 1 0 -0 0 0 0 0 0 0 0 0 -0 0 1 1 1 1 0 0 -0 0 0 0 0 0 0 0 0 0 0 0 0 0 0 0 0 0 0 0 0 -0 -0 -0 -0 0 0 0 -0 -0 -0 -0 -0 -0 -0 -0 -0 0 nan
nan 0 0 0 0 0 0 0 0 0 1 1 0 0 0 1 1 0 0 0 1 0 0 1 0 0 0 0 1 1 1 1 1 0 0 0 0 0 0 0 0 0 0 1 0 0 0 0 0 0 0 0 0 0 0 0 -0 -0 0 0 0 0 -0 -0 -0 -0 -0 -0 -0 -0 -0 -0 0 nan
nan 1 1 0 0 0 0 1 1 1 1 1 0 1 1 1 1 1 1 1 1 0 0 0 0 0 0 0 1 1 1 1 0 0 -0 0 1 1 0 0 0 0 0 1 0 0 0 0 0 0 0 0 0 0 0 0 -0 0 0 0 0 0 -0 -0 -0 -0 -0 -0 -0 -0 -0 -0 0 nan
nan 1 1 0 0 0 0 1 1 1 1 1 1 1 1 1 1 1 1 0 0 0 0 0 0 0 0 1 1 1 1 0 0 -0 -0 0 1 1 0 0 0 0 0 0 0 0 0 0 0 0 0 0 0 0 0 0 -0 0 0 0 0 0 0 -0 0 0 -0 -0 -0 -0 -0 -0 -0 nan
nan 0 0 0 0 0 0 1 1 1 0 1 1 1 1 1 1 1 -0 -0 -0 -0 -0 0 1 0 0 0 0 0 -0 -0 0 0 0 1 1 1 0 0 0 0 0 0 0 0 0 0 0 0 0 0 0 0 0 0 0 0 0 -0 0 0 0 0 0 0 0 0 0 -0 -0 -0 -0 nan
nan 0 0 0 0 1 1 1 1 0 0 1 2 1 1 1 1 0 -0 -0 0 -0 -0 0 1 0 0 0 -0 0 0 0 0 0 0 1 1 0 0 0 0 0 0 0 0 0 1 0 0 0 0 0 0 0 0 0 0 0 0 -0 0 0 0 0 0 0 0 0 0 0 0 0 0 nan
nan 0 1 0 0 0 1 1 0 0 0 1 2 1 1 0 0 -0 -0 0 0 -0 -0 0 1 0 -0 -0 0 0 0 0 0 0 1 1 0 0 0 0 0 0 0 0 0 0 0 0 0 0 0 0 0 0 0 0 0 0 -0 -0 0 -0 -0 0 0 0 0 0 -0 0 0 0 0 nan
nan 1 0 0 0 0 0 0 0 0 1 1 2 1 0 0 -0 0 1 1 0 -0 -0 0 0 -0 0 0 0 0 0 0 1 1 0 0 0 0 0 0 0 0 0 0 -0 0 0 0 0 0 0 0 0 0 -0 0 0 -0 -0 -0 -0 -0 -0 0 0 0 0 -0 -0 -0 -0 -0 0 nan
nan 0 0 0 0 0 0 0 -0 0 1 2 1 1 0 -0 -0 1 1 1 0 -0 -0 -0 -0 0 0 0 0 0 1 1 1 0 0 0 0 0 0 0 0 0 0 0 -0 0 0 0 -0 0 0 0 0 0 -0 0 -0 -0 -0 -0 -0 0 0 0 0 0 -0 -0 -0 -0 -0 -0 0 nan
nan 0 1 1 1 1 0 -0 -0 0 1 1 1 0 -0 -0 0 1 1 0 -0 -0 -0 -0 0 0 0 -0 0 1 1 1 0 0 0 0 0 0 0 0 0 0 0 0 -0 0 0 0 0 0 0 0 0 0 -0 0 -0 -0 -0 -0 -0 0 0 0 0 -0 -0 -0 -0 -0 -0 0 0 nan
nan 0 1 1 1 1 0 -0 -0 0 1 1 0 -0 -0 1 1 1 0 -0 -0 -0 -0 0 0 0 -0 0 1 1 1 1 0 0 1 1 0 0 0 -0 0 0 0 0 -0 0 0 0 0 0 0 0 0 -0 0 -0 -0 -0 -0 -0 0 -0 -0 0 0 0 0 0 -0 -0 -0 0 0 nan
nan -0 1 1 1 0 0 0 -0 -0 0 1 0 0 1 2 2 0 -0 -0 0 0 0 0 0 0 0 0 1 1 1 1 1 1 1 0 0 0 -0 -0 -0 0 0 0 0 0 0 0 0 0 0 0 -0 0 0 -0 -0 0 0 0 0 0 0 0 0 0 0 0 0 0 -0 -0 -0 nan
nan -1 -0 1 1 0 0 0 0 -0 0 0 1 1 1 2 1 0 -0 -0 0 0 0 0 0 0 0 1 1 1 1 1 0 0 0 0 0 0 -0 -0 0 0 0 0 0 0 0 0 0 0 0 0 -0 0 0 -0 0 0 0 0 0 0 0 0 0 0 0 0 0 0 -0 -0 -0 nan
nan -1 -1 0 1 0 0 1 1 0 0 0 1 1 1 1 1 0 -0 -0 -0 0 0 0 0 0 0 1 1 1 1 1 0 0 0 0 1 0 -0 -0 0 0 0 0 0 0 0 0 0 0 0 0 0 0 0 0 0 0 0 0 0 0 0 0 0 0 0 0 0 0 -0 -0 -0 nan
nan -0 -1 -0 1 0 0 1 1 1 0 0 1 1 1 1 0 0 0 -0 -1 0 0 0 0 0 1 1 1 1 1 1 0 0 1 1 1 0 -0 0 0 -0 0 0 1 0 0 0 0 -0 -0 -0 0 0 0 0 0 0 0 -0 -0 0 0 0 0 -0 -0 0 0 0 0 0 -0 nan
nan -0 -1 -1 1 1 0 0 1 1 0 0 1 1 1 0 0 1 1 0 -0 0 1 1 0 1 1 1 1 1 1 1 0 1 0 0 0 0 -0 0 -0 -0 0 1 1 0 0 0 0 0 0 -0 -0 -0 0 0 0 0 0 -0 -0 0 0 0 -0 -0 -0 0 -0 0 0 0 -0 nan
nan -1 -1 -0 1 1 0 -0 0 1 0 0 1 1 1 1 1 2 1 1 0 1 1 0 1 1 1 1 1 1 1 1 0 0 0 -0 0 0 0 0 -0 -0 0 1 1 0 0 0 0 0 0 -0 -0 -0 -0 0 0 0 0 -0 -0 0 0 -0 -0 -0 -0 -0 -0 0 0 0 0 nan
nan -0 -0 -0 1 1 -0 -0 0 1 0 0 1 1 1 1 2 2 1 1 1 1 1 0 1 1 1 0 1 1 1 1 0 -0 -0 -0 0 0 0 0 -0 0 1 1 0 0 0 0 0 0 -0 0 -0 -0 -0 0 0 0 0 0 0 -0 -0 -0 -0 -0 -0 -0 0 0 0 0 0 nan
nan 1 -0 -0 1 0 -1 -0 1 1 1 0 0 1 2 2 2 2 2 1 0 0 0 0 1 0 0 0 0 1 0 0 -0 -0 0 0 0 0 0 0 0 0 1 0 0 0 0 0 0 0 0 0 -0 -0 0 0 0 0 0 0 0 0 -0 -0 -0 -0 -0 -0 -0 0 0 0 0 nan
nan 0 -1 -0 1 -0 -1 -0 1 1 1 1 0 1 2 3 3 2 1 1 0 0 -0 -0 0 0 -0 -0 -0 1 1 0 0 0 1 1 0 0 1 0 0 0 0 0 0 0 0 -0 0 0 0 0 0 -0 -0 0 0 0 0 0 0 0 -0 -0 -0 -0 -0 -0 -0 0 0 0 0 nan
nan 0 -0 -0 0 -0 -1 0 1 1 1 1 1 1 3 4 3 2 1 1 0 -0 0 0 0 -0 -1 -1 1 1 1 1 0 1 1 1 0 0 1 0 0 0 0 0 0 0 -0 -0 0 0 0 0 0 0 0 0 0 0 0 -0 -0 0 0 0 -0 -0 -0 -0 -0 -0 -0 -0 -0 nan
nan 0 0 0 1 -0 -0 1 1 1 1 1 1 2 3 3 2 1 1 1 1 1 1 -0 -1 -1 -1 0 1 2 1 0 0 0 1 0 0 1 1 0 -0 0 0 0 -0 -0 -0 -0 0 0 -0 -0 0 0 0 0 0 0 0 -0 -0 -0 0 0 0 -0 -0 -0 -0 -0 0 0 -0 nan
nan 1 1 2 3 1 1 1 2 2 2 2 2 3 3 3 2 2 1 1 1 1 -0 -1 -1 -0 -0 0 1 1 -0 -0 0 0 1 0 1 1 1 0 -0 0 0 0 -0 -0 -0 -0 0 0 -0 -0 0 0 0 0 0 0 0 0 -0 -0 0 0 0 -0 -0 0 -0 0 0 0 0 nan
nan 2 2 4 4 2 1 2 2 2 2 2 2 3 3 3 3 2 1 1 1 0 -1 -1 -0 -0 -0 1 1 0 -0 -0 0 1 1 1 1 1 0 -0 -0 0 0 0 0 -0 -0 -0 0 -0 -0 -0 0 0 0 0 0 0 0 0 0 0 0 0 -0 -0 0 0 0 0 0 0 -0 nan
nan 2 2 3 2 1 0 0 0 1 2 2 2 2 2 3 3 2 1 1 0 -1 -1 -0 -1 -0 1 1 0 -0 -0 0 1 1 1 1 1 0 0 -0 0 0 0 -0 -0 -0 -0 0 -0 -0 -0 0 0 0 0 0 0 0 0 0 0 0 0 0 -0 0 0 -0 0 0 0 0 -0 nan
nan 2 1 1 1 -0 -1 -1 -1 1 1 1 2 1 1 2 3 2 0 -0 -1 -1 -0 -0 -0 1 1 1 0 0 0 1 1 1 1 1 0 0 -0 -0 0 0 -0 -0 -0 -0 -0 0 -0 -0 -0 0 0 0 0 0 0 0 0 0 0 -0 0 0 0 0 0 -0 -0 0 0 0 0 nan
nan 1 -0 -0 0 0 -1 -2 -1 1 1 1 1 1 2 4 3 0 -1 -1 -0 0 1 0 0 1 1 0 0 0 0 1 1 1 1 1 0 0 -0 -0 -0 -0 -0 -0 -0 -0 0 0 0 -0 -0 0 0 0 0 0 0 0 0 0 0 -0 -0 -0 0 0 0 0 -0 -0 -0 -0 -0 nan
nan -0 -1 -1 -0 -0 -1 -1 0 1 1 1 1 1 2 2 0 -1 0 2 2 2 1 1 1 1 0 0 1 1 0 1 1 1 1 0 0 -0 -0 -0 -0 -0 -0 0 0 0 0 0 0 -0 -0 0 0 0 0 0 0 0 0 0 0 0 0 0 0 0 0 0 0 -0 -0 -0 -0 nan
nan -2 -1 1 1 -1 -1 0 1 1 1 1 1 1 1 1 2 4 4 3 2 1 1 1 1 1 1 1 1 1 0 1 1 1 1 0 -0 -0 0 -0 0 0 0 0 0 0 0 0 -0 -0 -0 0 0 0 0 0 0 0 0 0 0 0 0 0 0 0 0 0 0 -0 -0 -0 0 nan
nan -1 0 2 1 -1 -1 2 2 1 1 1 1 1 2 2 5 5 2 0 1 2 1 1 1 1 1 1 1 0 1 1 1 1 0 0 -0 0 0 0 0 0 0 0 0 0 0 -0 -0 -0 0 0 0 0 0 0 0 0 0 -0 -0 0 0 0 -0 0 0 0 0 -0 0 0 0 nan
nan 1 1 -0 -1 -0 2 3 2 1 1 1 1 2 2 5 6 4 0 -0 1 2 1 0 1 1 1 0 0 0 1 1 1 0 -0 0 0 -0 0 0 -0 0 0 0 0 0 -0 -0 -0 0 0 0 0 0 0 0 0 0 0 -0 -0 -0 -0 0 0 0 0 0 0 -0 0 0 1 nan
nan 1 0 -2 -1 2 4 3 1 1 1 2 2 3 5 8 7 1 -2 -1 1 0 1 1 -0 -0 0 0 0 0 0 1 1 0 0 0 -0 -0 0 0 -0 0 0 0 0 0 -0 -0 -0 0 0 0 0 0 0 0 0 0 0 0 -0 -0 -0 0 0 0 0 0 0 -0 0 0 0 nan
nan 0 -1 -2 1 4 5 3 2 2 2 3 3 4 7 8 2 -3 -3 0 1 0 1 1 -1 -1 -1 -0 -0 0 0 1 1 0 0 0 0 0 0 0 0 0 0 0 0 0 -0 0 0 0 0 0 0 0 -0 0 0 0 0 0 0 -0 0 0 0 0 0 0 0 -0 -0 -0 -0 nan
nan -1 -1 1 3 4 3 2 2 2 2 2 1 3 7 5 -2 -4 -1 2 1 -0 1 0 -1 -1 -1 -0 0 0 0 1 1 0 0 0 0 0 0 0 0 0 0 0 0 0 0 0 0 0 0 0 0 0 -0 0 0 0 0 0 0 0 0 0 -0 0 0 0 -0 -0 -0 -0 -0 nan
nan 1 1 2 2 1 0 1 2 2 1 0 1 3 5 1 -3 -3 1 2 -0 -0 1 1 -0 -0 -1 -0 0 0 0 1 0 0 0 0 0 0 0 0 0 0 0 0 0 0 0 0 0 0 0 0 0 0 -0 0 0 0 0 0 0 0 0 -0 -0 0 0 0 0 -0 -0 -0 -0 nan
nan 1 2 1 -1 -1 0 1 2 1 1 1 2 3 3 -0 -3 -2 1 1 0 1 2 2 1 0 -0 -0 0 0 0 1 0 0 0 0 0 0 0 0 0 0 0 0 0 0 0 0 0 0 0 0 0 0 -0 -0 0 0 0 0 0 0 0 -0 -0 -0 0 0 0 0 -0 -0 -0 nan
nan nan nan nan nan nan nan nan nan nan nan nan nan nan nan nan nan nan nan nan nan nan nan nan nan nan nan nan nan nan nan nan nan nan nan nan nan nan nan nan nan nan nan nan nan nan nan nan nan nan nan nan nan nan nan nan nan nan nan nan nan nan nan nan nan nan nan nan nan nan nan nan nan nan
Wind_Speed
28 28 28 28 29 28 27 28 28 28 28 29 29 28 27 28 28 26 26 27 27 24 22 21 19 19 21 22 22 23 22 20 19 17 14 13 14 15 17 19 20 19 19 17 14 11 9 7 7 7 8 9 10 10 11 12 12 13 12 12 14 17 17 19 20 22 22 23 24 25 27 28 27 25
29 29 29 29 29 28 28 28 28 28 29 29 30 29 29 29 30 29 29 29 28 24 21 21 19 18 19 20 21 22 22 21 19 17 15 15 16 16 18 18 18 17 17 15 12 10 9 7 7 7 9 11 11 12 12 12 13 12 11 12 15 17 19 20 22 23 24 25 24 26 28 29 27 26
30 30 30 30 30 29 29 29 29 29 30 30 31 31 32 32 32 31 30 30 29 25 23 22 20 18 18 19 21 21 21 21 20 17 16 17 17 18 18 17 15 15 14 12 11 9 8 7 6 7 9 12 13 13 12 12 12 12 11 13 16 18 20 22 23 24 25 25 25 27 29 28 27 27
32 32 31 31 31 30 30 30 30 30 31 31 32 33 34 34 33 32 30 31 31 28 26 25 22 20 19 19 21 21 21 21 20 18 18 19 20 19 18 15 14 13 11 10 9 7 7 6 6 7 10 13 14 13 12 12 11 11 12 15 18 20 22 24 25 26 26 25 25 28 28 27 28 30
34 33 33 32 32 31 31 31 31 31 31 32 33 34 35 35 34 32 31 32 31 30 28 27 25 22 20 20 21 21 21 22 21 20 21 22 21 20 17 14 13 11 9 8 7 6 7 6 6 7 10 12 15 15 12 10 10 12 14 17 19 21 23 25 25 25 24 24 26 27 28 28 30 31
36 35 34 34 33 32 33 32 32 31 31 31 33 34 35 36 34 32 30 31 30 29 29 28 27 25 23 21 22 22 22 21 20 21 22 22 20 18 16 13 12 10 8 7 7 7 7 7 6 8 10 12 15 14 10 9 11 13 15 17 19 21 22 24 24 23 22 24 26 28 29 30 31 30
38 37 36 35 34 33 34 34 32 31 30 31 32 33 34 34 33 30 30 30 29 28 28 28 28 27 25 23 22 22 21 20 20 21 21 20 19 18 15 12 10 9 8 7 7 7 7 7 8 9 10 12 14 13 10 9 12 14 16 18 20 22 24 24 23 23 23 25 27 28 30 30 30 29
40 39 38 37 36 35 35 34 33 32 31 31 32 32 32 32 32 31 30 30 30 28 28 28 27 26 24 23 22 21 20 20 22 22 21 20 19 17 15 12 10 9 8 7 8 8 8 9 9 10 11 12 14 13 9 10 13 15 17 19 22 24 25 24 23 24 25 26 27 28 30 30 29 29
41 40 40 38 37 36 36 35 34 33 32 31 31 31 30 30 30 30 31 30 29 29 30 29 27 25 23 21 21 21 21 22 23 23 22 20 19 17 16 14 12 11 9 9 9 10 10 10 9 11 13 13 14 12 9 11 14 16 18 22 24 24 23 22 23 23 24 25 26 27 28 29 29 30
43 42 41 39 38 38 37 36 35 33 32 32 32 31 29 29 29 30 30 30 29 30 31 30 29 26 24 22 22 22 22 23 23 22 20 19 18 17 16 14 14 14 13 11 11 12 12 11 11 13 14 14 14 11 10 13 15 17 21 24 23 21 21 21 21 21 23 24 26 28 29 30 29 30
45 43 42 41 40 39 38 38 36 33 32 33 34 33 30 29 29 30 30 29 29 30 30 30 29 27 24 23 22 22 22 23 23 21 20 19 18 17 16 15 15 15 15 14 13 13 14 14 14 14 14 15 13 10 11 13 15 18 21 21 20 20 19 19 19 21 24 27 29 30 31 31 31 33
46 45 43 42 42 40 39 38 36 33 32 33 35 34 31 31 31 30 30 29 29 30 30 29 28 25 24 23 23 23 24 25 24 22 21 20 17 16 15 15 15 16 16 15 15 15 16 16 14 14 14 13 11 10 12 14 15 18 19 17 17 17 16 17 19 23 26 29 31 31 32 32 34 35
45 45 45 43 42 41 39 38 37 34 32 32 34 33 32 31 31 31 31 31 31 30 30 29 28 26 25 24 24 25 26 25 24 21 19 19 17 16 16 17 17 17 17 17 17 17 17 16 14 14 13 11 10 11 13 14 16 18 18 17 15 14 15 18 21 24 28 30 32 33 34 34 34 35
45 45 45 44 43 41 40 38 37 34 32 32 32 32 32 33 33 34 33 33 32 31 30 30 30 29 28 26 25 25 25 23 21 19 18 18 18 18 18 19 19 18 18 18 18 17 16 15 14 13 10 10 11 12 13 15 17 16 17 18 16 16 17 20 23 26 29 32 34 36 37 35 35 35
45 45 45 44 43 41 41 39 37 35 33 32 32 33 34 35 37 37 36 34 33 31 30 30 30 30 29 27 25 24 23 22 20 18 18 18 19 19 19 18 18 16 16 16 15 13 12 13 12 10 9 11 11 12 14 17 15 13 17 20 18 16 17 20 24 27 30 33 37 38 37 36 35 35
46 45 45 44 43 42 41 40 38 36 35 33 33 33 34 35 37 37 36 33 32 30 28 28 29 29 28 26 25 24 23 22 20 18 17 18 19 19 18 17 14 13 12 12 12 10 8 10 11 10 10 11 11 12 15 15 12 13 18 20 17 15 17 21 25 27 31 34 37 38 37 36 35 34
46 45 45 44 43 42 41 40 38 37 36 34 34 35 35 35 36 35 32 30 29 28 27 27 28 26 25 25 24 23 22 21 20 19 19 19 18 17 16 13 11 11 10 10 12 11 8 9 11 11 10 10 11 13 13 12 11 14 18 17 14 15 18 22 25 28 32 36 38 38 38 36 35 34
44 44 45 44 42 42 42 41 40 38 36 36 36 36 36 35 34 32 30 30 29 28 27 28 27 25 24 23 22 21 21 21 20 20 19 17 15 14 13 11 11 11 10 11 13 12 10 11 12 10 10 11 11 11 10 10 13 16 16 14 13 16 20 23 26 29 33 36 38 39 38 35 34 34
44 42 44 44 42 41 41 41 40 38 37 37 37 37 36 34 33 31 30 30 30 29 28 28 27 25 23 22 20 20 21 20 20 19 17 14 13 13 12 12 13 12 11 12 14 14 13 13 13 11 11 12 10 8 8 11 14 14 13 13 15 19 22 23 27 31 34 37 39 39 37 34 33 34
46 42 43 44 42 40 40 40 39 38 38 37 37 36 35 34 34 32 30 29 29 29 29 28 27 25 24 22 21 21 21 20 20 20 18 16 16 15 15 14 13 13 13 14 15 15 15 15 14 12 12 10 7 6 8 11 12 12 12 15 18 21 23 25 28 31 35 38 39 38 35 33 33 35
49 45 44 45 43 40 39 39 38 37 37 37 36 35 35 35 35 33 31 30 29 29 29 29 28 26 25 23 22 21 22 22 22 22 21 20 19 17 16 15 14 13 13 15 16 16 16 15 13 12 10 6 4 5 9 10 9 10 12 16 20 23 24 26 29 32 35 37 38 36 33 32 34 36
51 48 45 45 45 42 38 36 37 37 37 36 36 35 35 35 36 35 33 31 30 30 30 30 29 27 25 24 23 23 23 23 24 24 22 20 19 18 17 16 15 14 14 14 16 16 15 13 12 10 7 4 3 6 10 10 8 9 12 16 20 23 25 26 29 32 35 37 36 34 32 32 35 38
52 50 48 47 47 44 38 35 35 36 37 36 36 35 35 37 37 36 34 32 31 31 32 30 29 28 27 26 25 24 24 24 24 23 21 20 19 19 18 16 16 15 14 14 14 15 14 12 9 7 6 5 5 7 11 10 7 8 12 16 19 23 25 27 29 32 34 35 35 33 31 32 36 40
53 52 51 50 49 47 41 35 33 34 35 36 36 36 36 38 37 35 34 33 32 31 31 30 29 29 28 28 28 27 25 25 25 23 22 21 20 20 18 18 18 16 14 12 13 13 12 10 8 7 6 7 7 9 10 9 7 9 14 17 19 23 26 27 28 30 33 34 34 32 30 31 35 40
54 54 54 53 51 49 43 37 34 33 33 34 36 38 37 36 35 33 33 33 33 32 32 30 30 30 30 29 29 29 27 26 26 25 25 23 21 20 19 18 18 16 13 11 12 12 11 9 8 7 6 7 8 11 11 8 7 10 15 17 19 23 25 26 27 29 32 34 34 32 30 30 34 38
57 56 55 54 52 49 43 39 36 34 32 33 36 39 37 35 33 32 32 32 34 34 33 32 32 32 31 31 31 31 29 28 28 27 26 24 22 20 19 18 17 14 11 11 13 12 11 9 8 6 6 7 9 13 13 10 9 12 16 17 19 22 24 24 25 28 31 34 34 31 29 30 33 36
58 57 55 54 53 49 43 40 39 37 34 34 36 39 39 36 33 32 32 33 35 35 34 34 35 34 33 32 32 32 31 30 29 28 27 24 21 19 18 17 16 13 11 12 13 12 11 9 7 6 6 9 12 14 14 12 12 14 16 16 17 20 21 23 25 27 30 34 34 30 28 30 32 34
58 57 56 55 53 49 44 41 40 39 37 36 36 39 41 37 34 34 34 35 36 36 36 37 37 36 34 33 32 31 30 29 28 27 25 22 19 18 18 17 15 13 13 13 13 12 11 9 7 6 8 11 14 16 15 13 14 15 15 14 16 18 19 21 24 26 29 33 34 31 29 31 33 35
59 58 57 55 53 48 43 41 40 40 40 38 37 40 42 39 35 35 36 36 37 38 39 39 38 36 34 33 30 28 27 28 28 27 25 22 19 19 18 17 15 15 14 13 14 13 12 11 9 7 9 11 13 15 15 14 15 14 13 13 16 17 18 21 23 25 28 32 33 31 30 32 33 36
59 59 57 56 55 50 44 42 42 42 42 40 39 42 44 40 36 36 37 37 39 40 39 38 37 35 33 31 29 28 28 28 28 26 24 22 21 20 19 18 16 15 13 12 14 14 13 12 9 7 9 10 11 12 12 13 13 11 10 12 15 17 18 20 22 24 27 30 32 31 30 31 33 35
58 59 58 56 55 50 45 44 45 45 44 42 42 45 45 41 37 37 37 37 39 40 38 37 36 34 32 30 29 28 28 28 27 25 24 23 21 20 19 17 16 14 10 11 14 15 13 11 8 7 8 10 10 9 9 11 10 8 9 11 13 17 18 18 20 24 25 27 31 31 29 30 32 33
58 58 57 54 51 48 46 46 46 46 46 46 46 47 46 41 38 36 36 37 39 38 36 36 36 34 32 31 29 28 28 27 26 25 24 22 20 19 18 17 15 12 10 11 13 13 11 8 6 8 10 10 8 8 10 10 8 7 9 10 12 16 17 16 19 23 24 25 30 31 29 30 31 32
57 57 55 53 50 48 47 46 46 47 48 48 48 48 45 41 39 38 38 39 39 38 36 36 36 34 32 31 29 28 28 27 26 25 25 24 21 20 20 19 16 12 10 11 13 11 8 7 7 9 11 10 8 9 9 9 7 7 8 9 12 16 16 15 18 22 23 24 28 30 29 29 30 32
58 58 56 55 52 50 48 47 47 49 49 49 49 48 45 43 41 40 39 39 38 37 36 36 35 34 32 31 29 29 28 27 26 27 27 25 23 23 23 21 17 13 12 12 13 12 9 8 8 9 10 10 10 9 7 7 7 7 8 9 12 16 15 14 16 20 22 23 27 29 29 29 30 31
58 59 58 57 54 52 50 49 49 50 50 49 49 49 48 46 44 42 39 38 38 38 37 36 35 33 32 30 29 29 28 27 28 29 27 25 23 23 23 20 16 13 13 14 14 13 11 9 9 9 8 9 10 8 6 6 5 6 8 9 11 14 14 13 15 19 20 21 25 29 29 29 29 30
58 58 57 58 57 55 53 52 52 51 51 50 50 51 50 49 46 43 41 39 38 38 37 36 35 34 32 30 29 28 27 27 28 29 28 25 24 23 21 19 15 14 15 15 15 13 11 10 10 9 8 9 9 7 6 5 4 5 7 9 10 12 14 12 13 17 19 19 23 27 28 27 28 28
59 58 58 60 61 58 56 55 54 52 52 51 51 52 52 50 48 47 43 38 35 35 35 35 35 33 31 29 28 27 27 27 28 29 28 26 25 24 22 19 17 16 16 16 14 12 11 11 11 9 8 10 9 6 4 3 3 4 6 8 9 11 13 12 12 16 18 18 20 25 27 26 25 25
57 57 59 62 62 58 56 56 54 53 52 52 53 53 53 51 50 47 42 36 34 35 35 35 34 32 31 30 28 27 27 28 29 29 28 27 27 26 24 22 20 18 17 16 15 14 13 13 12 10 9 10 9 6 4 4 4 4 6 7 9 11 12 11 11 14 17 17 18 22 25 24 23 23
54 56 59 62 61 58 57 56 54 52 53 54 54 54 53 51 51 48 42 37 35 35 34 35 35 33 32 31 29 28 28 29 30 30 29 29 29 27 26 25 23 20 19 18 17 17 16 15 12 10 9 9 8 6 6 6 7 7 6 6 8 10 11 11 11 13 16 17 16 19 22 23 23 22
55 57 60 61 59 57 56 54 53 52 53 55 55 54 53 53 52 47 40 36 33 33 35 37 37 35 35 33 31 30 30 30 31 30 30 30 30 29 27 26 24 22 21 21 21 21 20 17 14 11 9 7 6 6 6 7 8 7 6 5 7 9 10 11 11 13 15 16 16 17 20 22 23 23
55 55 57 59 58 56 54 53 52 53 54 56 55 54 55 55 50 40 35 34 33 33 36 39 39 39 38 36 34 33 32 32 31 30 30 30 31 29 28 26 25 23 23 24 24 24 22 19 16 13 11 9 7 6 5 6 7 6 5 5 6 7 10 11 11 12 14 14 14 16 20 21 22 23
53 53 56 58 59 57 53 51 51 53 55 55 54 55 56 52 42 36 36 38 36 34 35 38 39 40 40 38 37 36 35 34 33 32 31 32 31 29 27 27 26 25 23 23 24 24 22 20 17 14 13 11 8 6 6 7 7 7 6 5 5 7 10 10 9 10 12 12 12 15 19 21 22 23
52 53 57 59 58 55 51 50 50 52 53 54 54 54 52 45 38 37 40 40 37 35 36 37 38 39 39 38 38 38 37 37 35 33 33 33 32 30 28 27 27 25 23 22 22 22 21 20 17 15 14 13 10 8 7 7 8 8 8 7 6 7 9 7 7 9 10 9 10 14 17 19 21 22
54 56 58 57 54 52 50 50 49 49 51 52 51 50 48 43 39 39 41 40 38 37 36 36 38 39 38 36 36 38 38 38 36 33 32 32 32 31 29 28 27 26 24 23 23 22 21 20 19 17 16 15 13 10 9 8 9 9 9 7 5 5 6 5 5 8 9 7 8 12 15 17 18 19
56 57 57 55 51 48 47 46 46 46 48 49 49 48 46 43 40 40 41 41 39 36 35 35 37 37 36 35 35 36 37 37 35 33 31 30 31 31 30 29 28 28 26 25 24 23 22 22 20 19 18 18 16 13 10 10 10 9 7 5 3 4 4 3 3 6 7 6 7 11 14 15 16 16
Wind_Direction
243 243 243 243 244 244 242 241 241 240 239 239 238 239 241 245 248 250 252 255 259 261 260 258 258 256 254 253 252 251 252 254 256 257 260 266 272 275 277 281 284 284 285 285 283 280 282 287 293 300 306 309 312 313 314 315 318 319 318 323 335 339 337 336 334 331 329 330 332 335 336 334 329 328
244 243 244 243 244 244 242 241 242 241 239 238 238 239 241 243 245 249 255 261 265 267 264 262 262 260 259 257 252 250 249 249 252 256 258 263 268 271 276 281 281 281 284 285 282 279 279 286 300 312 321 323 319 317 316 318 320 322 323 327 333 334 331 328 325 323 322 322 326 331 333 331 327 327
244 244 244 244 244 243 242 241 242 241 239 238 238 240 242 243 244 247 253 260 266 269 267 267 267 266 266 261 255 252 247 247 251 253 255 260 262 268 277 281 280 282 287 287 281 276 278 292 308 327 341 341 335 328 322 322 324 326 328 330 332 331 327 322 317 315 316 317 322 328 330 328 326 326
244 244 245 245 245 244 242 241 240 240 239 238 239 240 241 243 244 246 250 255 262 267 268 269 269 269 270 264 257 253 247 245 248 249 251 254 257 266 277 281 282 284 285 285 284 281 288 299 309 334 348 349 346 339 327 324 326 331 333 332 330 326 320 314 310 309 311 314 320 326 326 325 324 324
243 244 245 245 246 244 243 242 241 240 239 239 240 240 241 243 243 244 247 251 258 263 265 266 266 266 268 265 258 252 246 244 244 244 244 247 254 267 276 280 282 283 281 287 297 302 305 302 307 333 347 349 348 343 333 332 335 337 336 331 325 320 315 311 309 310 312 315 321 323 323 322 321 320
241 244 244 245 245 244 244 243 243 243 242 242 242 242 242 242 243 244 245 248 254 258 260 261 261 261 265 264 257 250 245 243 242 242 242 246 257 268 274 279 282 279 279 293 309 316 315 308 314 334 342 344 345 341 334 336 340 337 333 326 320 316 314 314 314 315 318 319 320 321 320 321 319 318
240 243 244 244 244 244 244 244 244 244 243 244 245 245 244 244 244 243 242 244 249 254 257 258 257 259 262 263 257 248 243 241 240 240 242 249 260 267 273 280 280 277 282 298 311 317 322 324 327 334 333 334 339 337 330 335 340 335 329 322 318 316 314 315 318 320 321 320 319 320 320 320 318 317
238 241 243 244 245 244 244 245 244 244 244 246 245 244 243 244 244 243 240 241 246 251 255 256 258 261 263 262 255 243 235 234 234 237 242 251 261 266 272 280 281 280 283 294 303 310 319 326 329 328 322 323 330 330 327 336 337 330 324 318 315 314 315 317 320 322 321 320 320 320 320 318 317 317
237 240 243 245 245 245 245 245 245 245 247 246 243 241 240 240 240 239 238 240 246 250 253 256 257 258 256 253 246 235 231 230 230 234 242 251 260 264 269 278 285 285 284 287 293 298 308 315 318 314 307 312 322 323 323 331 329 322 318 316 314 314 315 318 321 325 326 325 323 322 320 319 318 318
236 239 243 245 245 246 247 247 246 248 249 246 242 239 238 237 237 237 238 241 246 248 251 254 255 254 249 244 238 232 231 232 234 239 247 253 256 259 265 276 285 286 284 283 283 287 297 301 300 297 296 305 314 315 318 321 317 316 317 315 313 313 315 320 327 332 333 330 327 324 322 321 320 320
238 238 241 243 245 246 248 249 249 250 251 247 242 240 238 237 238 239 241 243 244 246 249 251 251 250 245 238 235 233 232 234 238 244 249 251 252 255 263 271 278 281 282 281 278 282 288 291 291 289 292 302 308 306 308 308 309 319 324 319 312 311 316 325 334 336 333 330 329 326 323 320 319 320
241 239 240 242 245 246 248 250 251 253 252 248 243 241 240 239 240 242 244 245 246 248 250 249 247 245 241 235 232 231 231 234 240 245 248 251 252 253 259 266 271 275 276 276 278 281 284 286 286 289 295 299 296 290 292 297 307 324 337 335 325 321 324 330 332 331 328 328 330 328 324 320 318 320
242 241 240 241 244 246 248 250 252 254 253 250 246 244 242 241 242 243 245 247 249 251 250 246 241 239 238 236 231 231 233 239 245 248 250 251 249 248 254 264 271 273 272 274 277 279 281 282 284 291 294 287 278 279 287 299 310 324 342 349 339 330 328 326 327 327 325 327 329 329 327 324 323 324
243 243 241 241 242 245 247 248 251 252 252 250 249 248 248 247 246 246 248 250 251 250 246 242 238 236 236 235 235 236 240 243 245 245 247 247 244 244 252 261 266 268 268 269 272 273 274 278 282 286 282 271 272 280 294 308 314 324 344 350 338 326 326 327 327 326 324 326 329 331 331 329 328 329
244 244 243 242 241 243 244 245 248 249 249 249 248 248 249 251 251 251 252 252 250 246 241 239 238 238 238 238 239 240 241 242 242 243 246 245 242 245 252 256 260 264 265 264 266 266 267 270 273 271 268 271 280 292 305 314 318 330 347 349 341 331 330 330 327 324 324 327 330 333 333 332 332 333
245 246 244 243 242 241 242 243 245 247 247 247 247 248 250 252 251 250 248 248 247 244 241 238 237 240 242 242 242 241 241 241 240 242 244 243 244 249 252 255 262 266 262 261 266 265 256 256 260 262 269 280 293 305 312 318 328 341 346 348 348 342 334 330 325 324 327 330 333 335 336 335 334 334
245 246 244 243 242 241 242 242 244 245 246 246 246 249 252 250 246 244 244 245 246 246 244 243 241 243 244 245 246 247 245 240 237 238 240 241 246 250 251 258 268 268 260 262 269 271 257 249 258 269 280 292 304 310 314 326 345 349 346 348 351 342 334 329 327 328 331 333 336 338 339 337 336 335
245 246 245 244 242 241 242 242 244 245 246 246 247 251 252 247 240 241 244 245 243 241 241 243 244 246 248 249 251 250 244 239 237 239 240 243 249 252 255 263 267 263 262 262 267 271 266 260 267 281 292 301 307 308 316 342 357 354 349 351 347 337 333 332 331 331 334 336 339 341 340 338 336 337
245 246 247 246 243 242 242 243 245 247 247 248 250 253 254 247 241 242 244 243 241 239 239 240 242 244 246 247 247 243 239 239 241 244 246 251 254 253 255 261 261 261 261 257 258 264 268 272 279 288 298 304 303 302 325 355 4 0 355 351 341 336 337 335 333 333 336 339 342 342 340 339 339 340
243 245 248 248 246 245 245 245 247 248 249 250 252 255 255 249 243 243 244 242 239 238 239 241 242 244 244 241 237 234 233 235 237 238 239 241 244 246 250 257 260 262 258 251 252 257 264 274 283 290 299 302 295 305 341 2 9 6 0 349 340 338 338 334 333 336 340 342 343 341 340 341 341 342
243 243 246 248 247 246 246 247 246 247 248 250 252 255 255 250 245 244 242 239 236 235 236 239 241 242 241 237 233 231 231 232 232 231 232 237 242 244 249 256 260 259 254 249 252 256 262 272 283 290 296 293 282 322 347 4 13 9 359 347 339 337 336 333 335 340 343 344 343 342 343 344 343 343
243 242 245 248 248 247 246 247 246 245 247 249 250 253 255 251 246 244 241 237 234 231 232 234 236 238 237 233 231 231 231 232 232 233 237 242 244 244 249 257 258 255 252 250 253 258 261 269 279 284 287 283 292 332 344 357 11 4 349 340 336 335 335 335 338 343 346 345 345 345 346 346 345 345
241 241 243 246 248 247 246 246 245 245 246 247 249 253 255 252 248 245 242 239 235 232 231 232 233 235 233 231 231 233 233 232 233 236 241 242 242 245 251 255 254 253 253 252 253 255 258 264 268 264 273 295 322 341 343 351 2 349 336 333 334 335 336 337 342 347 348 347 348 350 350 348 348 348
239 240 241 243 245 244 243 243 245 245 246 247 249 252 255 255 252 248 244 241 238 236 234 233 234 234 232 231 232 233 232 231 231 233 236 239 244 249 252 253 252 253 257 258 255 253 255 257 246 234 257 294 318 332 339 348 354 340 331 330 332 336 338 340 346 350 350 351 353 354 352 350 350 350
239 240 241 241 241 240 239 239 242 244 245 247 250 252 256 260 258 252 246 243 241 238 236 235 234 233 232 231 233 234 233 231 230 232 235 241 248 250 251 252 252 254 260 257 250 250 250 237 221 225 259 294 308 317 327 342 350 339 331 329 332 337 340 343 350 353 353 355 357 356 354 353 353 354
240 242 242 242 241 240 239 240 242 243 242 245 250 253 256 260 258 251 246 244 242 239 236 234 232 231 231 230 232 233 233 232 232 234 238 244 250 251 250 249 250 254 253 242 239 243 236 217 207 226 267 295 303 311 320 331 341 336 329 328 334 339 341 346 352 354 355 358 359 358 356 355 354 357
242 241 242 243 242 241 241 243 244 242 240 242 249 253 254 255 253 248 244 241 240 238 236 234 231 231 230 230 232 233 234 234 235 237 242 246 250 250 248 247 250 250 239 231 232 229 220 210 209 228 268 294 305 313 320 325 331 329 325 329 337 341 344 350 354 356 357 359 0 359 357 356 356 0
242 242 243 244 244 242 242 245 245 243 242 243 247 252 252 250 248 244 241 239 238 238 236 234 232 231 229 229 232 235 238 239 239 240 244 246 247 247 245 244 243 234 222 221 220 215 213 216 217 237 278 300 307 311 315 320 322 318 317 328 341 346 350 355 357 358 359 -0 1 360 358 358 -0 3
242 242 243 245 245 244 245 246 245 243 244 245 247 249 249 246 243 239 238 237 236 235 234 233 232 231 230 230 233 238 242 241 239 239 241 241 240 239 235 231 227 219 212 209 206 207 214 217 221 252 289 302 305 306 307 311 311 307 312 331 344 351 355 357 359 0 0 1 2 2 360 0 3 6
242 242 243 245 245 244 244 246 245 242 241 242 245 245 244 242 239 236 235 235 234 234 234 233 232 231 231 230 234 239 240 237 235 234 234 235 234 231 225 220 218 215 210 203 201 204 210 216 230 268 291 297 301 300 298 300 301 302 318 338 348 355 355 356 360 2 2 2 4 3 2 3 5 8
239 240 242 243 243 241 240 241 241 239 236 237 240 241 240 238 235 234 234 233 233 234 232 229 229 230 229 229 233 236 233 229 227 227 228 229 227 220 215 215 217 217 212 204 201 201 205 217 244 274 281 288 294 288 286 292 294 305 327 340 353 358 353 352 359 2 3 4 5 5 4 4 6 8
234 235 236 237 236 233 232 232 234 234 233 234 236 237 237 234 232 231 232 231 231 230 227 226 228 228 226 227 230 230 225 223 222 221 219 216 212 208 210 215 218 219 216 207 201 199 204 223 253 269 272 276 271 261 274 286 289 309 327 337 355 359 352 350 358 1 2 3 5 5 5 4 6 9
232 230 230 230 229 228 227 228 231 233 232 232 233 233 234 233 229 227 227 228 227 224 222 224 226 226 224 226 226 223 221 221 219 215 211 206 202 205 212 218 222 223 220 209 199 195 206 230 252 264 267 258 243 249 268 276 280 307 328 338 352 357 353 353 358 360 360 2 4 6 6 5 6 8
230 229 228 228 228 228 227 228 231 233 232 232 232 231 232 232 229 225 224 224 224 221 221 223 224 224 223 223 221 219 219 217 213 210 207 203 204 208 212 217 223 227 219 206 194 190 197 219 247 266 264 243 233 245 259 261 275 312 337 344 348 354 356 360 2 360 359 2 4 6 6 6 6 7
226 226 226 227 228 228 229 231 234 235 234 233 232 232 232 231 227 224 223 223 221 219 220 221 222 222 221 220 218 216 214 211 209 207 205 204 207 212 215 219 226 223 209 198 191 188 194 219 254 274 265 234 228 236 242 251 282 326 347 348 348 353 359 4 5 1 359 2 5 7 7 7 6 6
227 227 227 228 229 228 229 232 234 234 234 234 233 232 232 231 228 225 223 222 219 218 219 220 219 218 217 217 216 213 211 210 208 206 205 206 210 216 220 224 224 214 202 196 194 195 205 231 257 271 260 234 227 229 233 255 302 343 352 351 351 354 358 5 8 3 360 2 7 9 9 8 6 4
225 228 231 230 229 229 231 232 233 233 234 234 234 234 234 234 232 227 222 219 219 221 223 222 218 216 217 216 214 212 212 210 207 205 206 209 213 217 221 223 219 211 204 201 203 209 221 237 251 261 253 236 228 226 240 276 313 340 348 351 354 355 357 2 8 4 359 1 6 9 9 8 7 5
225 227 228 229 228 230 232 233 233 233 234 233 234 234 234 234 232 227 221 218 219 221 224 225 221 219 220 218 214 212 211 208 206 206 208 212 215 217 218 219 218 214 209 208 213 224 232 239 246 249 242 233 231 240 268 290 300 323 344 351 356 359 359 359 5 4 359 358 3 9 10 8 7 7
227 227 227 227 228 229 231 232 232 234 234 234 234 234 234 232 229 223 218 218 218 217 221 225 224 222 222 221 218 214 211 208 207 208 210 214 216 217 218 219 218 217 214 213 218 226 233 238 240 234 225 227 237 258 282 294 298 313 337 351 356 3 4 359 1 3 357 354 358 5 9 9 7 7
225 227 227 227 227 229 230 231 233 235 235 234 234 234 232 228 223 218 216 220 220 217 218 223 225 225 225 223 221 218 213 210 211 212 214 217 218 219 220 221 220 222 223 221 223 227 232 236 237 229 221 228 243 263 284 294 295 305 329 345 351 3 6 0 358 359 353 350 353 1 7 10 10 8
224 224 224 224 225 228 230 230 232 233 233 233 232 231 229 224 218 216 220 225 223 219 217 217 219 224 226 225 223 221 216 213 213 215 217 220 221 221 222 221 222 225 228 227 227 228 230 234 238 234 230 232 238 249 267 278 283 296 319 331 339 358 1 355 356 356 349 346 351 359 5 10 12 10
225 223 221 221 224 227 228 230 232 233 231 230 230 231 229 224 218 219 225 226 222 219 218 214 213 218 223 224 224 222 219 216 216 216 218 220 220 220 221 222 222 225 226 227 227 227 230 234 237 233 231 231 232 237 255 271 280 293 311 314 319 343 352 350 353 353 344 342 352 359 4 10 12 11
224 221 221 222 223 225 229 232 234 234 232 231 231 232 230 224 218 220 226 225 221 218 218 214 212 214 219 222 221 220 219 219 219 219 220 221 221 220 220 222 223 224 225 225 225 228 232 233 230 226 227 228 226 231 249 267 279 292 304 302 303 331 345 347 352 350 342 342 357 2 5 10 12 12
223 221 222 223 224 226 230 234 235 234 234 233 233 233 231 226 222 223 226 225 221 217 216 214 213 215 218 219 219 219 219 220 221 222 223 223 221 221 222 223 224 226 228 230 233 236 233 227 222 223 228 226 223 227 243 261 277 291 298 294 294 326 341 344 353 352 344 346 3 7 7 10 13 13
224 223 223 223 226 229 232 234 235 235 235 234 234 234 231 227 224 226 227 225 220 216 214 214 215 217 219 219 218 218 218 220 222 223 223 222 222 224 226 226 227 229 232 235 237 233 226 221 224 231 233 227 221 224 236 254 272 284 287 280 288 320 333 338 353 352 349 359 11 10 10 13 15 16
Height
1537 1538 1539 1539 1540 1541 1542 1543 1544 1544 1545 1546 1547 1547 1547 1547 1547 1546 1545 1543 1544 1545 1546 1545 1545 1545 1546 1546 1547 1548 1549 1550 1551 1551 1551 1551 1552 1552 1552 1552 1551 1550 1549 1548 1547 1546 1545 1544 1543 1542 1541 1540 1539 1538 1537 1536 1535 1534 1533 1532 1531 1529 1528 1527 1525 1524 1522 1520 1518 1516 1514 1512 1510 1508
1534 1535 1536 1536 1537 1538 1539 1540 1541 1542 1543 1543 1544 1544 1545 1545 1544 1544 1543 1541 1541 1543 1543 1543 1543 1543 1543 1544 1545 1546 1547 1548 1549 1549 1549 1550 1550 1551 1551 1550 1549 1548 1547 1546 1545 1544 1544 1543 1542 1541 1540 1539 1538 1537 1536 1535 1534 1533 1532 1531 1529 1528 1527 1525 1524 1522 1520 1518 1516 1514 1512 1510 1507 1505
1531 1531 1532 1533 1534 1535 1536 1537 1538 1539 1540 1540 1541 1541 1542 1542 1542 1542 1542 1540 1539 1540 1540 1540 1541 1541 1542 1542 1543 1544 1545 1546 1547 1547 1548 1548 1549 1549 1549 1548 1548 1546 1545 1544 1544 1543 1542 1541 1540 1539 1539 1538 1537 1535 1534 1533 1532 1531 1530 1529 1528 1527 1525 1524 1522 1520 1518 1516 1514 1512 1510 1508 1505 1503
1527 1528 1529 1530 1531 1532 1533 1534 1535 1536 1537 1537 1538 1538 1539 1539 1539 1540 1540 1538 1537 1538 1538 1538 1539 1539 1540 1540 1541 1542 1543 1544 1545 1545 1546 1547 1547 1547 1547 1547 1546 1545 1544 1543 1542 1541 1540 1540 1539 1538 1537 1537 1536 1534 1533 1532 1531 1530 1529 1528 1526 1525 1523 1522 1520 1518 1516 1514 1512 1510 1508 1505 1503 1500
1524 1525 1525 1526 1528 1530 1530 1531 1532 1533 1534 1534 1535 1535 1536 1536 1536 1537 1538 1537 1536 1536 1536 1536 1537 1537 1538 1538 1538 1539 1540 1541 1542 1543 1544 1545 1545 1545 1545 1545 1544 1543 1542 1541 1540 1540 1539 1538 1538 1537 1536 1535 1534 1533 1532 1531 1530 1529 1528 1526 1525 1523 1521 1519 1517 1516 1514 1512 1510 1508 1505 1503 1500 1497
1520 1521 1522 1523 1525 1527 1527 1528 1529 1530 1530 1531 1531 1532 1532 1533 1533 1535 1535 1535 1534 1534 1534 1535 1535 1535 1536 1536 1536 1537 1538 1539 1540 1541 1542 1543 1543 1543 1543 1542 1542 1541 1540 1539 1539 1538 1537 1537 1537 1536 1535 1534 1533 1532 1531 1530 1529 1528 1526 1525 1523 1521 1519 1517 1515 1513 1511 1509 1507 1505 1502 1500 1497 1494
1516 1517 1518 1520 1521 1523 1524 1525 1526 1527 1527 1528 1528 1528 1529 1530 1531 1532 1532 1532 1532 1532 1532 1532 1533 1533 1534 1534 1534 1535 1537 1538 1538 1539 1540 1541 1541 1541 1540 1540 1540 1539 1538 1538 1537 1536 1536 1536 1535 1534 1534 1533 1532 1531 1530 1529 1528 1526 1525 1523 1521 1519 1517 1515 1513 1511 1509 1507 1505 1502 1500 1497 1494 1491
1513 1514 1515 1516 1518 1520 1521 1522 1523 1524 1524 1525 1525 1525 1526 1527 1528 1529 1530 1530 1530 1530 1530 1530 1531 1532 1532 1532 1532 1534 1535 1536 1537 1538 1539 1539 1539 1538 1538 1537 1537 1537 1536 1536 1535 1535 1534 1534 1534 1533 1532 1532 1531 1530 1529 1528 1526 1525 1523 1521 1519 1517 1515 1513 1511 1509 1507 1505 1502 1500 1497 1494 1491 1488
1509 1510 1511 1513 1515 1517 1518 1518 1520 1521 1521 1521 1522 1522 1523 1524 1525 1526 1527 1528 1528 1528 1528 1528 1529 1529 1530 1530 1530 1532 1533 1533 1534 1535 1536 1536 1536 1536 1535 1535 1535 1535 1534 1534 1533 1533 1533 1532 1532 1532 1531 1530 1529 1528 1527 1526 1525 1523 1521 1519 1517 1515 1513 1511 1509 1507 1505 1502 1500 1497 1494 1491 1488 1485
1505 1506 1508 1510 1512 1513 1514 1515 1516 1518 1518 1519 1519 1520 1520 1522 1523 1524 1525 1525 1525 1525 1525 1526 1526 1527 1528 1528 1529 1530 1531 1531 1532 1533 1534 1534 1534 1533 1533 1533 1533 1533 1532 1532 1531 1531 1531 1531 1530 1530 1529 1528 1528 1527 1526 1525 1523 1521 1519 1517 1515 1513 1511 1509 1508 1505 1503 1500 1497 1494 1491 1488 1485 1481
1501 1502 1504 1506 1508 1510 1511 1512 1513 1515 1516 1516 1517 1517 1518 1519 1520 1521 1522 1522 1522 1522 1523 1523 1523 1524 1525 1526 1527 1528 1529 1530 1530 1531 1531 1531 1531 1531 1531 1531 1531 1531 1530 1530 1529 1529 1529 1529 1529 1528 1527 1527 1526 1525 1524 1523 1521 1520 1518 1515 1513 1511 1509 1508 1506 1503 1500 1497 1494 1491 1488 1485 1481 1478
1496 1498 1500 1502 1504 1506 1508 1509 1510 1512 1513 1514 1514 1515 1516 1517 1518 1518 1519 1519 1519 1520 1520 1521 1521 1522 1523 1524 1525 1526 1527 1527 1527 1528 1528 1528 1528 1529 1528 1528 1529 1528 1528 1528 1527 1527 1527 1527 1527 1526 1526 1525 1524 1523 1522 1521 1520 1518 1516 1513 1511 1509 1508 1506 1504 1501 1498 1495 1492 1489 1485 1482 1478 1474
1492 1494 1496 1498 1500 1502 1504 1506 1508 1509 1510 1511 1511 1512 1513 1514 1515 1515 1516 1517 1517 1517 1518 1518 1519 1520 1520 1521 1522 1522 1523 1523 1524 1525 1526 1526 1526 1527 1527 1527 1527 1526 1526 1526 1525 1525 1525 1525 1525 1524 1524 1523 1522 1521 1521 1520 1518 1517 1514 1512 1510 1508 1506 1504 1502 1499 1496 1493 1489 1486 1482 1479 1475 1471
1488 1490 1492 1494 1496 1499 1501 1503 1505 1506 1507 1508 1508 1510 1510 1511 1512 1513 1513 1514 1514 1515 1515 1515 1516 1516 1517 1518 1519 1519 1520 1521 1522 1523 1523 1524 1524 1524 1525 1525 1525 1525 1524 1524 1524 1524 1524 1523 1523 1523 1522 1521 1521 1520 1519 1518 1516 1515 1513 1510 1508 1506 1505 1502 1500 1496 1493 1490 1486 1483 1479 1475 1471 1468
1484 1486 1488 1490 1493 1495 1497 1499 1501 1503 1504 1505 1506 1507 1508 1508 1509 1510 1511 1511 1512 1512 1512 1512 1513 1513 1514 1515 1516 1517 1518 1519 1520 1520 1521 1522 1522 1522 1523 1523 1523 1523 1522 1522 1522 1522 1522 1521 1521 1521 1520 1520 1519 1519 1517 1516 1514 1513 1511 1509 1507 1505 1503 1500 1497 1494 1491 1488 1484 1480 1476 1472 1468 1464
1481 1482 1484 1486 1489 1491 1493 1496 1498 1500 1501 1502 1503 1504 1505 1505 1506 1506 1507 1508 1509 1509 1509 1509 1509 1510 1511 1513 1514 1514 1516 1517 1517 1518 1519 1519 1519 1520 1521 1521 1521 1521 1520 1520 1520 1520 1520 1520 1519 1519 1519 1518 1518 1517 1515 1514 1513 1511 1509 1507 1505 1503 1501 1498 1496 1492 1489 1485 1481 1477 1473 1470 1466 1462
1477 1479 1481 1482 1484 1487 1490 1492 1495 1496 1498 1499 1500 1501 1502 1502 1503 1503 1504 1505 1505 1506 1506 1506 1506 1507 1509 1510 1511 1512 1513 1514 1515 1516 1516 1517 1517 1518 1518 1519 1519 1519 1519 1518 1518 1518 1518 1518 1517 1517 1517 1517 1516 1515 1514 1513 1511 1509 1508 1506 1504 1502 1499 1497 1494 1490 1486 1483 1479 1475 1471 1467 1463 1460
1473 1476 1477 1478 1481 1483 1486 1488 1491 1493 1494 1496 1497 1498 1498 1499 1499 1500 1500 1501 1502 1503 1503 1503 1504 1505 1507 1507 1508 1510 1511 1512 1512 1513 1514 1515 1516 1516 1516 1517 1517 1517 1517 1517 1516 1515 1516 1516 1516 1516 1515 1515 1515 1514 1512 1511 1510 1508 1506 1504 1502 1500 1498 1495 1492 1488 1484 1480 1476 1472 1469 1465 1461 1458
1469 1472 1473 1475 1477 1480 1482 1484 1487 1489 1491 1492 1494 1494 1495 1495 1496 1496 1497 1498 1498 1499 1500 1501 1502 1503 1504 1505 1506 1508 1508 1509 1510 1511 1512 1513 1514 1514 1515 1515 1515 1515 1515 1515 1514 1514 1514 1514 1514 1514 1514 1513 1513 1512 1511 1510 1508 1506 1505 1503 1501 1499 1497 1494 1490 1486 1482 1478 1474 1471 1467 1463 1460 1456
1465 1468 1470 1471 1473 1476 1478 1480 1483 1486 1488 1489 1490 1491 1492 1492 1493 1494 1494 1495 1496 1497 1497 1499 1500 1501 1502 1503 1504 1505 1506 1507 1508 1509 1510 1511 1511 1512 1512 1513 1513 1513 1513 1513 1513 1512 1512 1512 1512 1512 1512 1512 1511 1511 1510 1508 1506 1505 1504 1502 1500 1498 1495 1492 1488 1484 1480 1476 1472 1469 1466 1462 1458 1454
1460 1463 1465 1467 1469 1472 1474 1477 1480 1482 1484 1486 1487 1488 1488 1489 1490 1490 1491 1492 1492 1493 1494 1496 1497 1498 1499 1500 1501 1502 1503 1505 1506 1506 1507 1508 1509 1510 1510 1511 1511 1511 1511 1511 1511 1511 1511 1510 1510 1510 1510 1510 1510 1509 1508 1507 1505 1504 1502 1501 1499 1496 1494 1490 1487 1483 1479 1475 1471 1468 1464 1460 1456 1452
1454 1457 1461 1463 1465 1468 1471 1473 1476 1479 1480 1482 1483 1484 1485 1485 1485 1486 1487 1488 1489 1490 1491 1492 1494 1495 1496 1497 1499 1500 1501 1502 1503 1504 1505 1506 1507 1507 1508 1509 1509 1509 1509 1509 1509 1509 1509 1509 1509 1509 1509 1509 1508 1507 1506 1505 1504 1503 1501 1500 1497 1495 1492 1489 1485 1481 1478 1474 1471 1467 1463 1459 1455 1450
1449 1452 1456 1458 1460 1463 1467 1470 1473 1475 1477 1479 1480 1481 1481 1480 1480 1482 1484 1485 1486 1487 1488 1489 1490 1492 1493 1495 1496 1497 1498 1499 1500 1501 1503 1504 1504 1505 1506 1507 1507 1507 1507 1507 1507 1507 1507 1507 1507 1507 1507 1507 1506 1506 1505 1504 1503 1501 1500 1498 1496 1493 1491 1488 1484 1480 1477 1474 1470 1466 1462 1458 1453 1449
1445 1447 1450 1453 1455 1459 1463 1467 1470 1472 1474 1475 1476 1477 1476 1476 1477 1480 1483 1484 1484 1485 1486 1487 1488 1489 1490 1492 1493 1494 1495 1496 1498 1499 1500 1501 1502 1503 1504 1504 1504 1504 1505 1505 1505 1505 1505 1505 1506 1506 1506 1505 1505 1504 1503 1502 1501 1500 1498 1496 1494 1492 1489 1486 1483 1480 1477 1473 1469 1465 1461 1457 1453 1448
1441 1442 1445 1448 1450 1454 1459 1464 1466 1468 1470 1472 1472 1472 1473 1474 1476 1478 1480 1481 1483 1483 1484 1485 1486 1486 1488 1489 1490 1491 1492 1493 1495 1496 1497 1499 1500 1501 1501 1502 1502 1502 1503 1503 1502 1503 1503 1503 1504 1504 1504 1504 1503 1503 1502 1500 1499 1498 1496 1494 1492 1490 1488 1485 1482 1479 1476 1472 1468 1464 1461 1457 1453 1448
1436 1437 1440 1443 1446 1450 1455 1460 1462 1464 1467 1468 1468 1469 1471 1472 1473 1474 1476 1479 1480 1480 1481 1482 1482 1483 1484 1486 1487 1488 1489 1491 1492 1494 1495 1496 1497 1498 1499 1499 1500 1500 1501 1501 1501 1501 1501 1502 1502 1502 1502 1502 1502 1501 1500 1499 1497 1496 1495 1493 1491 1489 1487 1484 1481 1478 1475 1471 1467 1464 1460 1457 1454 1450
1431 1433 1436 1438 1441 1446 1452 1455 1458 1460 1462 1463 1464 1465 1467 1469 1470 1470 1472 1474 1475 1476 1477 1478 1478 1479 1480 1482 1484 1485 1486 1488 1490 1491 1493 1494 1495 1496 1496 1497 1497 1498 1499 1499 1499 1499 1499 1500 1500 1501 1501 1501 1500 1499 1498 1497 1496 1494 1493 1492 1491 1488 1486 1483 1480 1477 1474 1471 1467 1463 1460 1457 1454 1450
1428 1429 1431 1433 1436 1442 1447 1450 1452 1454 1456 1458 1460 1461 1463 1464 1466 1467 1468 1470 1472 1473 1473 1473 1474 1475 1477 1479 1480 1482 1484 1486 1488 1489 1490 1492 1492 1493 1494 1494 1495 1496 1497 1497 1497 1497 1498 1498 1499 1499 1499 1499 1498 1497 1496 1495 1494 1493 1492 1491 1490 1487 1485 1482 1479 1476 1474 1470 1466 1463 1460 1456 1453 1449
1422 1424 1426 1428 1431 1436 1442 1445 1447 1449 1451 1454 1456 1457 1458 1460 1461 1462 1463 1466 1467 1467 1467 1468 1470 1472 1474 1476 1478 1481 1483 1484 1485 1486 1487 1488 1489 1490 1491 1491 1492 1493 1494 1495 1495 1495 1496 1497 1497 1497 1497 1496 1495 1495 1494 1494 1493 1492 1491 1490 1488 1486 1483 1481 1479 1476 1473 1470 1466 1462 1459 1456 1452 1448
1418 1419 1421 1422 1425 1431 1437 1440 1442 1443 1446 1449 1451 1452 1453 1454 1456 1457 1458 1461 1462 1462 1464 1466 1468 1470 1473 1475 1477 1479 1480 1481 1482 1483 1485 1486 1486 1487 1488 1489 1490 1491 1492 1493 1493 1494 1494 1495 1495 1495 1494 1494 1493 1493 1493 1492 1492 1491 1490 1488 1487 1485 1482 1480 1478 1476 1473 1469 1466 1462 1459 1456 1452 1448
1413 1414 1415 1417 1421 1426 1431 1434 1435 1437 1441 1443 1445 1446 1447 1449 1451 1452 1455 1457 1458 1459 1462 1464 1466 1468 1471 1473 1474 1475 1476 1477 1479 1480 1482 1483 1484 1485 1486 1487 1488 1489 1490 1490 1491 1492 1493 1493 1493 1493 1492 1492 1492 1491 1491 1491 1490 1490 1489 1487 1486 1484 1481 1480 1478 1475 1472 1469 1466 1463 1459 1456 1453 1450
1408 1410 1411 1413 1417 1421 1425 1427 1429 1432 1435 1437 1439 1440 1442 1444 1446 1449 1452 1453 1454 1455 1459 1461 1463 1465 1468 1469 1470 1472 1473 1474 1476 1477 1479 1480 1482 1483 1484 1484 1485 1486 1487 1488 1489 1490 1491 1491 1491 1490 1490 1490 1490 1490 1490 1490 1489 1488 1487 1486 1485 1483 1481 1479 1477 1474 1472 1469 1466 1463 1460 1457 1454 1450
1403 1404 1406 1408 1411 1415 1418 1422 1425 1427 1429 1431 1433 1435 1437 1439 1441 1444 1446 1447 1448 1451 1455 1457 1459 1462 1464 1465 1467 1468 1469 1471 1473 1474 1476 1478 1480 1481 1481 1482 1483 1485 1485 1486 1487 1488 1489 1489 1489 1489 1489 1488 1488 1488 1488 1488 1488 1487 1486 1485 1483 1482 1480 1478 1476 1474 1471 1469 1466 1463 1460 1457 1454 1451
1395 1398 1400 1402 1405 1408 1412 1415 1418 1420 1422 1425 1428 1430 1433 1434 1435 1438 1440 1442 1444 1447 1450 1452 1455 1458 1460 1462 1463 1464 1466 1469 1470 1472 1474 1476 1477 1478 1479 1480 1481 1482 1483 1484 1485 1486 1486 1487 1487 1487 1487 1487 1487 1487 1487 1487 1486 1485 1484 1483 1482 1481 1479 1477 1476 1473 1471 1468 1465 1463 1460 1457 1454 1451
1387 1391 1393 1396 1399 1402 1406 1409 1412 1414 1417 1420 1422 1425 1427 1428 1429 1432 1436 1438 1440 1442 1445 1448 1452 1454 1456 1458 1460 1462 1464 1466 1468 1469 1471 1473 1474 1475 1476 1478 1479 1480 1481 1482 1483 1484 1484 1485 1485 1485 1485 1485 1485 1485 1485 1485 1485 1484 1483 1482 1481 1480 1478 1477 1475 1473 1471 1468 1466 1463 1460 1457 1455 1452
1380 1385 1389 1391 1393 1396 1399 1403 1406 1409 1412 1414 1417 1419 1421 1422 1424 1427 1430 1432 1435 1438 1441 1444 1448 1451 1453 1455 1457 1460 1462 1464 1465 1467 1469 1470 1471 1473 1474 1476 1477 1478 1479 1480 1481 1482 1482 1483 1483 1483 1484 1483 1483 1483 1483 1483 1483 1482 1481 1480 1479 1478 1477 1476 1474 1473 1471 1469 1466 1462 1460 1458 1455 1453
1374 1379 1384 1386 1388 1390 1394 1397 1400 1403 1406 1409 1411 1413 1415 1417 1419 1422 1425 1430 1434 1438 1440 1443 1446 1448 1451 1453 1455 1457 1459 1461 1463 1464 1466 1468 1469 1471 1472 1474 1475 1476 1477 1479 1480 1480 1481 1481 1481 1481 1482 1482 1482 1482 1482 1482 1481 1481 1480 1479 1478 1477 1476 1475 1474 1472 1471 1468 1466 1463 1460 1458 1456 1454
1368 1374 1378 1380 1382 1386 1389 1392 1394 1397 1401 1403 1405 1407 1409 1413 1416 1418 1423 1428 1432 1435 1439 1443 1445 1447 1449 1451 1453 1455 1457 1458 1460 1462 1464 1466 1467 1469 1470 1472 1474 1475 1476 1477 1478 1479 1479 1479 1479 1480 1480 1480 1480 1481 1481 1480 1480 1479 1479 1478 1477 1476 1475 1474 1473 1472 1470 1468 1466 1464 1461 1459 1457 1455
1363 1367 1371 1374 1377 1381 1383 1386 1389 1392 1396 1398 1400 1402 1405 1409 1411 1414 1419 1423 1426 1430 1435 1440 1442 1444 1447 1449 1450 1452 1454 1456 1457 1459 1461 1463 1465 1467 1469 1470 1472 1473 1474 1475 1476 1477 1477 1477 1478 1478 1479 1479 1479 1479 1479 1479 1479 1478 1477 1476 1475 1474 1474 1473 1472 1471 1470 1468 1466 1464 1462 1460 1458 1456
1359 1362 1365 1368 1373 1376 1378 1381 1384 1387 1390 1393 1395 1398 1401 1402 1405 1410 1416 1419 1422 1426 1431 1435 1439 1441 1443 1445 1447 1450 1451 1453 1455 1457 1459 1461 1463 1465 1466 1468 1470 1471 1472 1473 1474 1475 1475 1476 1476 1477 1477 1478 1478 1478 1478 1478 1478 1477 1476 1475 1474 1473 1473 1472 1471 1470 1469 1467 1466 1464 1462 1460 1459 1457
1354 1358 1361 1364 1368 1371 1373 1376 1379 1382 1385 1388 1391 1394 1395 1396 1402 1410 1415 1417 1419 1422 1425 1429 1433 1436 1439 1441 1444 1446 1448 1450 1452 1454 1456 1458 1460 1462 1464 1466 1467 1468 1469 1470 1472 1473 1473 1474 1475 1475 1476 1476 1476 1476 1476 1476 1476 1476 1475 1474 1473 1472 1472 1471 1471 1470 1469 1467 1465 1463 1461 1460 1458 1457
1349 1353 1356 1359 1362 1365 1368 1371 1374 1377 1380 1383 1386 1389 1390 1394 1402 1409 1412 1413 1416 1418 1420 1423 1426 1430 1434 1437 1440 1442 1444 1446 1449 1451 1453 1455 1457 1459 1461 1462 1464 1465 1466 1468 1469 1471 1472 1472 1473 1473 1474 1474 1474 1475 1475 1475 1475 1475 1474 1473 1472 1471 1471 1471 1470 1469 1468 1467 1465 1463 1461 1459 1457 1456
1344 1348 1350 1352 1356 1359 1362 1365 1368 1372 1375 1379 1382 1385 1388 1393 1400 1404 1405 1408 1411 1413 1415 1418 1421 1424 1428 1432 1435 1438 1441 1443 1445 1448 1450 1452 1454 1456 1458 1459 1461 1463 1464 1466 1468 1469 1470 1470 1471 1471 1472 1472 1473 1473 1473 1473 1474 1474 1473 1472 1471 1471 1470 1470 1469 1469 1468 1467 1465 1463 1461 1459 1457 1456
1339 1342 1344 1346 1350 1353 1356 1359 1363 1367 1371 1375 1379 1382 1386 1391 1395 1398 1400 1404 1407 1409 1411 1415 1418 1421 1425 1429 1431 1434 1437 1439 1442 1444 1446 1449 1451 1453 1455 1457 1459 1460 1462 1464 1465 1466 1467 1468 1468 1469 1470 1470 1471 1471 1472 1472 1472 1472 1472 1471 1470 1470 1469 1469 1469 1468 1468 1467 1465 1464 1461 1459 1458 1457
1334 1337 1339 1342 1345 1349 1352 1355 1359 1363 1367 1371 1375 1379 1382 1386 1390 1393 1396 1400 1403 1406 1409 1413 1416 1419 1423 1426 1428 1430 1433 1436 1439 1442 1444 1446 1448 1450 1452 1454 1456 1457 1459 1460 1462 1463 1464 1465 1466 1466 1467 1468 1469 1469 1470 1470 1471 1471 1471 1470 1469 1469 1468 1468 1468 1468 1467 1467 1465 1464 1462 1460 1459 1457